This is the latest recevied weather packets stored in our database for station/object KI7MOQ. If no packets are shown the sender has not sent any weather packets the latest 10 day(s).
| Time | Temp. | Humidity | Pressure | Rain* | Wind** | Luminosity | Snow |
|---|---|---|---|---|---|---|---|
| 1777425418 | 13.89° C | 56% | 1025.3 hPa | 0 mm | - | 32 W/m² | - |
| 1777425115 | 14.44° C | 56% | 1025.2 hPa | 0 mm | - | 39 W/m² | - |
| 1777424811 | 14.44° C | 55% | 1025.2 hPa | 0 mm | - | 51 W/m² | - |
| 1777424507 | 14.44° C | 54% | 1025.1 hPa | 0 mm | - | 45 W/m² | - |
| 1777424202 | 14.44° C | 54% | 1025.1 hPa | 0 mm | - | 44 W/m² | - |
| 1777423900 | 14.44° C | 55% | 1025.1 hPa | 0 mm | - | 38 W/m² | - |
| 1777423597 | 14.44° C | 55% | 1024.9 hPa | 0 mm | - | 37 W/m² | - |
| 1777423292 | 14.44° C | 55% | 1025.2 hPa | 0 mm | - | 47 W/m² | - |
| 1777422986 | 14.44° C | 55% | 1025.1 hPa | 0 mm | - | 57 W/m² | - |
| 1777422682 | 14.44° C | 55% | 1025 hPa | 0 mm | - | 58 W/m² | - |
| 1777422377 | 14.44° C | 56% | 1025.1 hPa | 0 mm | - | 57 W/m² | - |
| 1777422072 | 14.44° C | 54% | 1025 hPa | 0 mm | - | 63 W/m² | - |
| 1777421766 | 14.44° C | 55% | 1025.1 hPa | 0 mm | - | 63 W/m² | - |
| 1777421463 | 15° C | 54% | 1025 hPa | 0 mm | - | 50 W/m² | - |
| 1777421159 | 15° C | 53% | 1025.2 hPa | 0 mm | - | 41 W/m² | - |
| 1777420855 | 15° C | 54% | 1025.1 hPa | 0 mm | - | 51 W/m² | - |
| 1777420551 | 15° C | 54% | 1025 hPa | 0 mm | - | 63 W/m² | - |
| 1777420247 | 15.56° C | 52% | 1025.1 hPa | 0 mm | - | 85 W/m² | - |
| 1777419943 | 15° C | 53% | 1025.1 hPa | 0 mm | - | 319 W/m² | - |
| 1777419641 | 15° C | 53% | 1025.1 hPa | 0 mm | - | 57 W/m² | - |
| 1777419339 | 15° C | 52% | 1025.2 hPa | 0 mm | - | 64 W/m² | - |
| 1777419037 | 15° C | 54% | 1025.2 hPa | 0 mm | - | 98 W/m² | - |
| 1777418737 | 15° C | 54% | 1025.3 hPa | 0 mm | - | 105 W/m² | - |
| 1777418434 | 15° C | 56% | 1025.1 hPa | 0 mm | - | 91 W/m² | - |
| 1777418130 | 15° C | 54% | 1025.4 hPa | 0 mm | - | 98 W/m² | - |
* Rain latest hour (hover to see other rain measurements)
** Current wind speed in m/s (hover to see current wind gust speed)